Flight Track Log - Related Links

Times and Time Zones

All times are in EDT time to prevent confusion due to time zone crossing. See the UAL3732 flight status page for this flight to view local times or setup timezone preferences in your user account.

Time Position Orientation Groundspeed Altitude Reporting Facility
EDT Latitude Longitude Course Direction KTS MPH feet Rate Location/Type
07:34PM 39.7000 -86.3000 79° East 157 181 1,500  Level Indianapolis TRACON
07:34PM 39.6833 -86.3167 218° Southwest 155 178 2,700 1,929 Climbing Indianapolis TRACON
07:35PM 39.6347 -86.3767 224° Southwest 207 238 4,200 2,483 Climbing Indianapolis Center
07:36PM 39.5775 -86.3361 151° Southeast 264 304 7,500 2,855 Climbing Indianapolis Center
07:37PM 39.5942 -86.2317 78° East 306 352 10,100 2,049 Climbing Indianapolis Center
07:38PM 39.8351 -85.4383 79° East  Level FlightAware Approximate
07:38PM 39.6272 -86.1183 69° East 335 386 11,700  Level Indianapolis Center
07:39PM 39.8613 -85.2686 79° East  Level FlightAware Approximate
07:39PM 39.6650 -85.9919 69° East 371 427 14,000  Level Indianapolis Center
07:40PM 39.7047 -85.8567 69° East 396 456 16,000 1,984 Climbing Indianapolis Center
07:41PM 39.7542 -85.6903 69° East 420 483 18,100 1,951 Climbing Indianapolis Center
07:42PM 39.7975 -85.5417 69° East 435 501 20,000 1,756 Climbing Indianapolis Center
07:43PM 39.8411 -85.3900 69° East 445 512 21,700 1,597 Climbing Indianapolis Center
07:44PM 39.8869 -85.2342 69° East 457 526 23,300 1,452 Climbing Indianapolis Center
07:45PM 39.9192 -85.0711 76° East 470 541 24,700 829 Climbing Indianapolis Center
07:46PM 39.9242 -84.8889 88° East 486 559 25,000 244 Climbing Indianapolis Center
07:47PM 39.9314 -84.7014 87° East 512 589 25,200 629 Climbing Indianapolis Center
07:49PM 39.9383 -84.5142 87° East 513 590 26,300 1,024 Climbing Indianapolis Center
07:50PM 39.9453 -84.3272 87° East 514 592 27,300 976 Climbing Indianapolis Center
07:51PM 39.9514 -84.1397 88° East 514 592 28,300 968 Climbing Indianapolis Center
07:52PM 39.9581 -83.9517 87° East 514 592 29,300 1,065 Climbing Indianapolis Center
07:53PM 39.9650 -83.7317 88° East 515 593 30,500 1,122 Climbing Indianapolis Center
07:54PM 39.9703 -83.5417 88° East 513 590 31,600 927 Climbing Indianapolis Center
07:55PM 39.9758 -83.3814 87° East 513 590 32,400 677 Climbing Indianapolis Center
07:56PM 39.9806 -83.1594 88° East 514 592 33,000 293 Climbing Indianapolis Center
07:57PM 39.9856 -82.9647 88° East 524 603 33,000  Level Indianapolis Center
07:58PM 39.9903 -82.7689 88° East 533 613 33,000  Level Indianapolis Center
07:59PM 39.9936 -82.5753 89° East 531 611 33,000  Level Indianapolis Center
08:00PM 39.9981 -82.3819 88° East 530 610 33,000 -49 Level Indianapolis Center
08:01PM 40.0008 -82.1892 89° East 528 608 32,900  Descending Indianapolis Center
08:02PM 40.0042 -81.9961 89° East 527 606 33,000 48 Climbing Indianapolis Center
08:03PM 40.0069 -81.8039 89° East 529 609 33,000  Level Indianapolis Center
08:04PM 40.0100 -81.5856 89° East 526 605 33,000  Level Indianapolis Center
08:05PM 39.9803 -81.3958 101° East 531 611 33,000  Level Indianapolis Center
08:06PM 39.9389 -81.2317 108° East 526 605 33,000  Level Indianapolis Center
08:07PM 39.9117 -81.1056 106° East 523 602 33,000  Level Cleveland Center
08:08PM 39.8664 -80.9267 108° East 523 602 33,000 -99 Level Cleveland Center
08:09PM 39.8189 -80.7397 108° East 528 608 32,800 -767 Descending Cleveland Center
08:11PM 39.7264 -80.3914 109° East 488 562 30,800 -1,053 Descending Washington Center
08:12PM 39.6794 -80.2103 109° East 559 643 29,800 -1,000 Descending Washington Center
08:13PM 39.6339 -80.0350 109° East 517 595 28,800 -1,000 Descending Washington Center
08:14PM 39.5900 -79.8625 108° East 504 580 27,800 -900 Descending Washington Center
08:15PM 39.5439 -79.6903 109° East 504 580 27,000 -400 Descending Washington Center
08:16PM 39.4994 -79.5292 110° East 478 550 27,000 -500 Level Washington Center
08:17PM 39.4764 -79.3986 103° East 464 534 26,000 -1,400 Descending Washington Center
08:18PM 39.4381 -79.2247 106° East 455 524 24,200 -1,750 Descending Washington Center
08:19PM 39.4092 -79.0728 104° East 455 524 22,500 -2,350 Descending Washington Center
08:20PM 39.3842 -78.9214 102° East 433 498 19,500 -3,050 Descending Washington Center
08:21PM 39.3569 -78.7778 104° East 421 484 16,400 -2,500 Descending Washington Center
08:22PM 39.3333 -78.6453 103° East 403 464 14,500 -1,900 Descending Washington Center
08:23PM 39.3114 -78.5208 103° East 372 428 12,600 -1,700 Descending Washington Center
08:24PM 39.2892 -78.3967 103° East 360 414 11,100 -800 Descending Washington Center
08:25PM 39.2458 -78.2958 119° Southeast 338 389 11,000 -450 Descending Washington Center
08:26PM 39.1978 -78.2003 123° Southeast 325 374 10,200 -1,300 Descending Washington Center
08:27PM 39.1478 -78.1075 125° Southeast 320 368 8,400 -1,600 Descending Washington Center
08:28PM 39.0994 -78.0175 125° Southeast 315 362 7,000 -1,100 Descending Washington Center
08:29PM 39.0533 -77.9278 123° Southeast 308 354 6,200 -450 Descending Washington Center
08:30PM 39.0050 -77.8356 124° Southeast 286 329 6,100 -50 Descending Washington Center
08:31PM 38.9689 -77.7542 120° Southeast 286 329 6,100  Level Washington Center
08:32PM 38.9667 -77.6167 91° East 304 350 6,100 -425 Level Potomac TRACON
08:33PM 39.0333 -77.5667 30° Northeast 259 298 5,200 -947 Descending Potomac TRACON
08:34PM 39.0833 -77.5667 360° North 205 236 4,300 -1,000 Descending Potomac TRACON
08:35PM 39.1167 -77.5333 38° Northeast 218 251 3,300 -1,091 Descending Potomac TRACON
08:36PM 39.1000 -77.4833 113° Southeast 182 209 2,100 -595 Descending Potomac TRACON
08:37PM 39.0667 -77.4500 142° Southeast 146 168 2,100 -300 Level Potomac TRACON
08:38PM 39.0333 -77.4667 201° Southwest 125 144 1,500 -600 Descending Potomac TRACON

Login

Don't have an account? Register now (free) for customized features, flight alerts, and more!